User: anonymous   Login
Location: Mentone
(34.5413°N, 85.5351°W)
Time: 03:48:04
(UTC-05:00)
Language:

Centaur AC-72 - Orbit

View from above orbital plane
View from above orbital plane
View from above satellite
View from above satellite

Ground track
Ground track

The orbit data is extracted from the following two-line orbital elements,

1 21907U 92013B   16204.30372794 -.00000150  00000-0  00000+0 0  9998
2 21907  19.6489  14.6021 6955336 319.8710 297.0987  2.25603837200839
Epoch (UTC): 22 July 2016 07:17:22
Eccentricity: 0.6955336
inclination: 19.6489°
perigee height: 1098 km
apogee height: 35258 km
right ascension of ascending node: 14.6021°
argument of perigee: 319.8710°
revolutions per day: 2.25603837
mean anomaly at epoch: 297.0987°
orbit number at epoch: 20083

The dashed part of the orbit path shows where the satellite is in the earth's shadow,  

DLR